Location: Bakov nad Jizerou
(50.4784°N, 14.9394°E)
Time: 11:24:34
(UTC+00:00)

SL-8 R/B - Pass Details

Date: 01 November 2021
Orbit: 656 x 667 km, 48.4° (Epoch: 29 November)

Event Time Altitude Azimuth Distance (km) Brightness Sun altitude
Rises 18:29:17 0° 279° (W) 2,988 8.3 -28.0°
Reaches altitude 10° 18:32:21 10° 259° (W) 2,074 7.1 -28.4°
Maximum altitude 18:35:23 17° 220° (SW) 1,661 6.0 -28.9°
Enters shadow 18:36:13 16° 207° (SSW) 1,695 5.9 -29.0°
